| time (UTC) | temp C | wind direction | speed KPH | gust KPH | rain 1hr cm | rain 24hr cm | rain mn cm | humidity % | barometer mb |
| 20260504223027 | 19 | 191 | 12.9 | 29.0 | 0.00 | 0.00 | 0.00 | 39 | 1004.5 |
| 20260504221523 | 20 | 200 | 12.9 | 29.0 | 0.00 | 0.00 | 0.00 | 37 | 1004.6 |
| 20260504220034 | 21 | 195 | 9.7 | 19.3 | 0.00 | 0.00 | 0.00 | 34 | 1004.4 |
| 20260504214521 | 20 | 257 | 9.7 | 30.6 | 0.00 | 0.00 | 0.00 | 34 | 1004.4 |
| 20260504213012 | 20 | 219 | 12.9 | 30.6 | 0.00 | 0.00 | 0.00 | 34 | 1004.4 |
| 20260504211517 | 21 | 234 | 11.3 | 25.7 | 0.00 | 0.00 | 0.00 | 33 | 1004.4 |
| 20260504210004 | 20 | 182 | 9.7 | 29.0 | 0.00 | 0.00 | 0.00 | 33 | 1004.4 |
| 20260504204607 | 21 | 219 | 11.3 | 25.7 | 0.00 | 0.00 | 0.00 | 33 | 1004.4 |
| 20260504203107 | 21 | 257 | 14.5 | 37.0 | 0.00 | 0.00 | 0.00 | 33 | 1004.4 |
| 20260504201618 | 21 | 210 | 8.0 | 30.6 | 0.00 | 0.00 | 0.00 | 32 | 1004.4 |
| 20260504200053 | 21 | 208 | 12.9 | 25.7 | 0.00 | 0.00 | 0.00 | 32 | 1004.7 |
| 20260504194552 | 21 | 238 | 17.7 | 33.8 | 0.00 | 0.00 | 0.00 | 33 | 1004.9 |
| 20260504193045 | 21 | 213 | 14.5 | 33.8 | 0.00 | 0.00 | 0.00 | 32 | 1004.8 |
| 20260504191542 | 20 | 226 | 16.1 | 29.0 | 0.00 | 0.00 | 0.00 | 32 | 1004.7 |
| 20260504190033 | 20 | 185 | 12.9 | 30.6 | 0.00 | 0.00 | 0.00 | 32 | 1004.7 |
| 20260504184534 | 20 | 160 | 14.5 | 33.8 | 0.00 | 0.00 | 0.00 | 32 | 1004.9 |
| 20260504183027 | 20 | 207 | 8.0 | 30.6 | 0.00 | 0.00 | 0.00 | 31 | 1005.2 |
| 20260504181530 | 20 | 212 | 9.7 | 37.0 | 0.00 | 0.00 | 0.00 | 31 | 1005.3 |
| 20260504180018 | 20 | 198 | 22.5 | 40.2 | 0.00 | 0.00 | 0.00 | 31 | 1005.4 |
| 20260504174515 | 19 | 196 | 16.1 | 33.8 | 0.00 | 0.00 | 0.00 | 32 | 1005.5 |
| 20260504173115 | 18 | 203 | 17.7 | 38.6 | 0.00 | 0.00 | 0.00 | 33 | 1005.6 |
| 20260504171612 | 18 | 252 | 17.7 | 41.8 | 0.00 | 0.00 | 0.00 | 33 | 1005.7 |
| 20260504090106 | 6 | 158 | 1.6 | 6.4 | 0.00 | 0.00 | 0.00 | 62 | 1008.1 |
| 20260504081547 | 6 | 147 | 1.6 | 8.0 | 0.00 | 0.00 | 0.00 | 60 | 1008.0 |
| 20260504050104 | 6 | 212 | 4.8 | 6.4 | 0.00 | 0.00 | 0.00 | 57 | 1008.1 |
| 20260504044600 | 6 | 193 | 1.6 | 4.8 | 0.00 | 0.00 | 0.00 | 57 | 1008.2 |
| 20260504043101 | 6 | 214 | 1.6 | 4.8 | 0.00 | 0.00 | 0.00 | 55 | 1008.3 |
| 20260504041551 | 6 | 213 | 3.2 | 6.4 | 0.00 | 0.00 | 0.00 | 55 | 1008.4 |
| 20260504040048 | 6 | 204 | 3.2 | 8.0 | 0.00 | 0.00 | 0.00 | 52 | 1008.3 |
| 20260504034544 | 6 | 212 | 3.2 | 8.0 | 0.00 | 0.00 | 0.00 | 52 | 1008.1 |
| 20260504033049 | 6 | 238 | 4.8 | 9.7 | 0.00 | 0.00 | 0.00 | 52 | 1007.9 |
| 20260504031535 | 6 | 229 | 4.8 | 9.7 | 0.00 | 0.00 | 0.00 | 54 | 1007.7 |
| 20260504030031 | 5 | 212 | 3.2 | 6.4 | 0.00 | 0.00 | 0.00 | 58 | 1007.6 |
| 20260504024540 | 5 | 249 | 1.6 | 6.4 | 0.00 | 0.00 | 0.00 | 59 | 1007.5 |
| 20260504023021 | 5 | 236 | 1.6 | 6.4 | 0.00 | 0.00 | 0.00 | 58 | 1007.5 |
| 20260504021517 | 5 | 252 | 1.6 | 6.4 | 0.00 | 0.00 | 0.00 | 58 | 1007.3 |
| 20260504020015 | 5 | 233 | 1.6 | 4.8 | 0.00 | 0.00 | 0.00 | 58 | 1007.3 |
| 20260504014506 | 6 | 220 | 1.6 | 6.4 | 0.00 | 0.00 | 0.00 | 57 | 1007.1 |
| 20260504013001 | 6 | 210 | 1.6 | 4.8 | 0.00 | 0.00 | 0.00 | 54 | 1007.2 |
| 20260504011601 | 7 | 211 | 0.0 | 4.8 | 0.00 | 0.00 | 0.00 | 52 | 1007.0 |
| 20260504010057 | 7 | 233 | 3.2 | 6.4 | 0.00 | 0.00 | 0.00 | 50 | 1006.9 |
| 20260504004602 | 7 | 221 | 0.0 | 3.2 | 0.00 | 0.00 | 0.00 | 48 | 1006.6 |
| 20260504003048 | 8 | 215 | 1.6 | 4.8 | 0.00 | 0.00 | 0.00 | 46 | 1006.4 |
| 20260504001547 | 8 | 259 | 0.0 | 4.8 | 0.00 | 0.00 | 0.00 | 45 | 1006.4 |
| 20260504000040 | 9 | 282 | 4.8 | 9.7 | 0.00 | 0.00 | 0.00 | 43 | 1006.1 |
| 20260503234538 | 9 | 238 | 3.2 | 11.3 | 0.00 | 0.00 | 0.00 | 42 | 1006.2 |
| 20260503233031 | 10 | 291 | 8.0 | 19.3 | 0.00 | 0.00 | 0.00 | 41 | 1006.1 |
| 20260503231525 | 10 | 279 | 3.2 | 19.3 | 0.00 | 0.00 | 0.00 | 40 | 1006.0 |
| 20260503230022 | 10 | 264 | 11.3 | 32.2 | 0.00 | 0.00 | 0.00 | 40 | 1006.0 |
| 20260503224518 | 10 | 205 | 6.4 | 19.3 | 0.00 | 0.00 | 0.00 | 41 | 1005.7 |